一网星座-0532星 (ONEWEB-0532)

导读 | 豆包AI

ONEWEB-0532是一网(OneWeb)星座的低轨通信卫星,由英国主导,于2023年1月10日发射入轨。作为OneWeb一期组网卫星之一,它运行于约1200公里轨道,单星重约147.5公斤,采用Ku/Ka波段提供宽带服务,单星通信能力约7.5Gbps,助力构建全球覆盖的卫星互联网,为偏远地区提供高速网络接入,设计寿命5年,寿命结束后将主动离轨减少空间碎片。

基本信息
目录编号:
55140
目录名称:
ONEWEB-0532
国际标识:
2023-004A
轨道中心:
EARTH
卫星名称:
一网星座-0532星
卫星全名:
一网星座-0532星 (ONEWEB-0532)
卫星状态:
在轨 (已飞行1159 天)
发射日期:
2023-01-10 UTC
国别 :
英国 (GB)
星等 :
--
轨道信息
数据来源 国际轨道数据 AOE轨道数据
星历时间 2026-03-14T03:25:32+0800
9小时前
查看轨道信息
2026-03-11T15:00:00+0800
2天前
查看轨道信息
半长轴 7571.851km 7571.85km
偏心率 0.0001877 0.0001808
轨道倾角 87.917° 87.917°
近地点辐角 68.041° 79.663°
升交点赤经 24.803° 25.303°
平近点角 292.092° 224.370°
近地点 1192.292km 1192.344km
远地点 1195.136km 1195.082km
周期 109.286分钟 109.286分钟
每日圈数 13.176489 13.176493
详细信息
平衡模式:
三轴稳定
覆盖范围:
全球
运营商:
一网卫星公司
运营商所在国:
英国
制造商(研发单位):
一网卫星公司
制造商所在国:
英国
使用方式:
暂无
卫星简介
OneWeb卫星网络由648颗重约125公斤的微型卫星组成,运行在1200公里的轨道上。 每颗卫星都能够提供至少每秒8千兆位的吞吐量,以使用其高吞吐量的Ku频段有效载荷为家庭和移动平台提供互联网接入。该卫星仍在工作。
2D轨道图
3D轨道图
轨道高度分析图
轨道倾角分析图
轨道综合分析图
查看轨道综合分析图